Satellite: ISS
Catalog number: 25544
Epoch time:      10134.04366898
Element set:     147
Inclination:      051.6469 deg
RA of node:       045.8067 deg
Eccentricity:    0.0009642
Arg of perigee:   314.0466 deg
Mean anomaly:     220.6655 deg
Mean motion:   15.73972181 rev/day
Decay rate:     2.2548e-04 rev/day^2
Epoch rev:           65809
Checksum:              317

Satellite: CO-58
Catalog number: 28895
Epoch time:      10132.68395237
Element set:     581
Inclination:      098.0220 deg
RA of node:       018.3284 deg
Eccentricity:    0.0018710
Arg of perigee:   040.2222 deg
Mean anomaly:     320.0356 deg
Mean motion:   14.59888192 rev/day
Decay rate:       1.14e-06 rev/day^2
Epoch rev:           24180
Checksum:              290

Satellite: FALCON
Catalog number: 30776
Epoch time:      10133.68776137
Element set:     826
Inclination:      035.4340 deg
RA of node:       253.7438 deg
Eccentricity:    0.0001841
Arg of perigee:   283.6586 deg
Mean anomaly:     076.3923 deg
Mean motion:   15.03652283 rev/day
Decay rate:       8.43e-06 rev/day^2
Epoch rev:           17486
Checksum:              310

Satellite: MAST
Catalog number: 31126
Epoch time:      10132.63362061
Element set:     863
Inclination:      097.9395 deg
RA of node:       176.4771 deg
Eccentricity:    0.0094503
Arg of perigee:   337.4000 deg
Mean anomaly:     022.3046 deg
Mean motion:   14.53583927 rev/day
Decay rate:        8.2e-07 rev/day^2
Epoch rev:           16289
Checksum:              287

Satellite: CAPE1
Catalog number: 31130
Epoch time:      10132.58195457
Element set:    0885
Inclination:      097.9442 deg
RA of node:       173.9086 deg
Eccentricity:    0.0101876
Arg of perigee:   345.5314 deg
Mean anomaly:     014.2954 deg
Mean motion:   14.52174825 rev/day
Decay rate:       2.05e-06 rev/day^2
Epoch rev:           16249
Checksum:              300

Satellite: COMPASS
Catalog number: 32787
Epoch time:      10133.66432633
Element set:     670
Inclination:      097.8961 deg
RA of node:       198.8920 deg
Eccentricity:    0.0016733
Arg of perigee:   040.5377 deg
Mean anomaly:     319.7077 deg
Mean motion:   14.81859607 rev/day
Decay rate:       2.12e-06 rev/day^2
Epoch rev:           11038
Checksum:              314

Satellite: AAUSAT2
Catalog number: 32788
Epoch time:      10132.72545899
Element set:    0664
Inclination:      097.8962 deg
RA of node:       198.0857 deg
Eccentricity:    0.0016436
Arg of perigee:   045.1769 deg
Mean anomaly:     315.0755 deg
Mean motion:   14.81999552 rev/day
Decay rate:       -7.0e-08 rev/day^2
Epoch rev:           11025
Checksum:              340

Satellite: DO-64
Catalog number: 32789
Epoch time:      10132.80512928
Element set:     679
Inclination:      097.9035 deg
RA of node:       198.5984 deg
Eccentricity:    0.0016476
Arg of perigee:   044.1121 deg
Mean anomaly:     316.1400 deg
Mean motion:   14.82127477 rev/day
Decay rate:       5.65e-06 rev/day^2
Epoch rev:           11026
Checksum:              311

Satellite: CO-66
Catalog number: 32791
Epoch time:      10133.68126741
Element set:     662
Inclination:      097.8975 deg
RA of node:       198.9282 deg
Eccentricity:    0.0017049
Arg of perigee:   039.1207 deg
Mean anomaly:     321.1274 deg
Mean motion:   14.81649527 rev/day
Decay rate:       5.05e-06 rev/day^2
Epoch rev:           11034
Checksum:              314

Satellite: RS-30
Catalog number: 32953
Epoch time:      10133.76031698
Element set:     688
Inclination:      082.5026 deg
RA of node:       051.0840 deg
Eccentricity:    0.0018370
Arg of perigee:   173.3378 deg
Mean anomaly:     186.7948 deg
Mean motion:   12.43005211 rev/day
Decay rate:        1.0e-07 rev/day^2
Epoch rev:            8946
Checksum:              288

Satellite: TACSAT-3
Catalog number: 35001
Epoch time:      10132.93678004
Element set:    0305
Inclination:      040.4570 deg
RA of node:       065.8111 deg
Eccentricity:    0.0019727
Arg of perigee:   101.4328 deg
Mean anomaly:     258.8705 deg
Mean motion:   15.41524656 rev/day
Decay rate:      4.813e-05 rev/day^2
Epoch rev:           05519
Checksum:              270

Satellite: PHARMSAT
Catalog number: 35002
Epoch time:      10132.96765215
Element set:    0274
Inclination:      040.4706 deg
RA of node:       063.7550 deg
Eccentricity:    0.0022979
Arg of perigee:   106.0940 deg
Mean anomaly:     254.2407 deg
Mean motion:   15.42081883 rev/day
Decay rate:      4.460e-05 rev/day^2
Epoch rev:           05521
Checksum:              266

Satellite: HAWKSAT1
Catalog number: 35003
Epoch time:      10132.87962265
Element set:    0291
Inclination:      040.4627 deg
RA of node:       060.0715 deg
Eccentricity:    0.0020780
Arg of perigee:   118.6164 deg
Mean anomaly:     241.6671 deg
Mean motion:   15.44899831 rev/day
Decay rate:      9.596e-05 rev/day^2
Epoch rev:           05525
Checksum:              295

Satellite: CP6
Catalog number: 35004
Epoch time:      10132.89440630
Element set:    0285
Inclination:      040.4678 deg
RA of node:       059.3025 deg
Eccentricity:    0.0019725
Arg of perigee:   123.4708 deg
Mean anomaly:     236.7881 deg
Mean motion:   15.45628069 rev/day
Decay rate:     1.1286e-04 rev/day^2
Epoch rev:           05525
Checksum:              299

